Погода в Виллагарсоне

Колумбия     1°08′52″N   76°38′53″W
темп.,
°C
ветер,
м/с
пор.,
м/с
влажн.,
%
обл.,
%
осадки,
мм/ч
давл.,
гПа
погр.,
м
12 апреля, пн
пн1201:00+12зсз219768 0.4 101730
04:00+13з1198100 0.8 101633
07:00+14ю019889 1.5 101779
10:00+15вюв129897 1.4 1019231
13:00+16вюв229898 4.1 1016482
16:00+15вюв11100100 2.1 1015175
19:00+14всв1210099 3.4 1017149
22:00+13с1199100 0.7 101966
13 апреля, вт
вт1301:00+13зсз229793 2.1 101852
04:00+13з119584 0.1 101622
07:00+13з1193100 0.1 101825
10:00+16вюв228584 0.4 1020504
13:00+17юв2287100 2.1 1016757
16:00+16юв129483 1.9 1014420
19:00+13з119998 3.4 101727
22:00+12зсз229799 0.4 102036
14 апреля, ср
ср1401:00+11зсз229594 0.4 101835
04:00+11зсз229455 0.0 101730
07:00+13з118997 0.1 101945
10:00+14ююв1199100 1.3 1020147
13:00+14вюв11100100 2.6 1017208
16:00+14сз1199100 9.4 101690
19:00+12зсз219782 9.4 101727
22:00+13зсз219598 0.0 101929
15 апреля, чт
чт1501:00+13зсз219499 0.0 101730
04:00+12зсз219192 0.0 101628
07:00+14з1188100 0.1 101744
10:00+14юв0190100 0.3 1019159
13:00+16ююв128557 0.5 1016389
16:00+16вюв118790 0.3 1013236
19:00+13зсз119747 0.5 101619
22:00+13зсз119331 0.0 101821
16 апреля, пт
пт1601:00+12зсз219277 0.0 101733
04:00+13зсз2286100 0.1 101643
07:00+14зсз1188100 0.5 101734
10:00+17юв1180100 0.1 1018423
13:00+19юв2270100 0.4 1014918
16:00+16вюв129349 1.9 1013432
19:00+14зюз009789 3.3 101623
22:00+14з109696 0.7 101817